�������l�o���
Date,Time,MP-1(��Sv/h),MP-2(��Sv/h),MP-3(��Sv/h),MP-4(��Sv/h),MP-5(��Sv/h),MP-6(��Sv/h),MP-7(��Sv/h),MP-8(��Sv/h),����,����(m/s),���J
2019/02/23,00:00,0.792,1.143,0.793,1.476,1.065,0.445,0.792,0.747,�k�k��,6.0,��
2019/02/23,00:10,0.790,1.144,0.792,1.474,1.063,0.444,0.790,0.746,�k�k��,6.4,��
2019/02/23,00:20,0.792,1.145,0.792,1.476,1.063,0.445,0.790,0.746,�k�k��,6.3,��
2019/02/23,00:30,0.790,1.143,0.794,1.476,1.065,0.443,0.789,0.748,�k��,6.1,��
2019/02/23,00:40,0.792,1.142,0.793,1.479,1.061,0.444,0.788,0.747,�k��,6.4,��
2019/02/23,00:50,0.793,1.141,0.793,1.479,1.065,0.443,0.790,0.746,�k��,7.4,��
2019/02/23,01:00,0.792,1.143,0.793,1.475,1.063,0.445,0.791,0.747,�k��,8.7,��
2019/02/23,01:10,0.789,1.144,0.795,1.475,1.060,0.442,0.790,0.747,�k��,8.7,��
2019/02/23,01:20,0.790,1.142,0.793,1.476,1.062,0.443,0.791,0.747,�k��,8.5,��
2019/02/23,01:30,0.790,1.142,0.795,1.479,1.064,0.443,0.791,0.748,�k��,7.8,��
2019/02/23,01:40,0.791,1.144,0.794,1.476,1.063,0.445,0.792,0.748,�k��,7.0,��
2019/02/23,01:50,0.791,1.142,0.792,1.475,1.063,0.444,0.790,0.748,�k��,8.0,��
2019/02/23,02:00,0.792,1.141,0.792,1.474,1.063,0.446,0.792,0.748,�k��,6.4,��
2019/02/23,02:10,0.789,1.141,0.794,1.477,1.063,0.444,0.790,0.747,�k�k��,7.6,��
2019/02/23,02:20,0.792,1.143,0.794,1.476,1.062,0.446,0.791,0.747,�k�k��,7.7,��
2019/02/23,02:30,0.791,1.141,0.794,1.476,1.062,0.445,0.790,0.748,�k�k��,7.1,��
2019/02/23,02:40,0.790,1.141,0.795,1.478,1.063,0.445,0.791,0.748,�k��,7.6,��
2019/02/23,02:50,0.791,1.143,0.793,1.477,1.063,0.445,0.791,0.747,�k��,7.3,��
2019/02/23,03:00,0.789,1.143,0.792,1.478,1.063,0.444,0.791,0.747,�k��,5.6,��
2019/02/23,03:10,0.791,1.142,0.793,1.476,1.063,0.444,0.789,0.748,�k��,5.9,��
2019/02/23,03:20,0.790,1.143,0.793,1.477,1.062,0.444,0.790,0.749,�k��,6.0,��
2019/02/23,03:30,0.790,1.142,0.793,1.477,1.065,0.443,0.791,0.747,�k��,7.5,��
2019/02/23,03:40,0.790,1.141,0.792,1.476,1.064,0.445,0.790,0.748,�k��,6.6,��
2019/02/23,03:50,0.791,1.142,0.794,1.477,1.062,0.445,0.791,0.746,�k��,7.5,��
2019/02/23,04:00,0.792,1.141,0.793,1.481,1.063,0.443,0.788,0.747,�k��,7.4,��
2019/02/23,04:10,0.790,1.144,0.794,1.474,1.064,0.445,0.789,0.748,�k��,7.6,��
2019/02/23,04:20,0.792,1.142,0.794,1.477,1.063,0.445,0.790,0.749,�k��,7.3,��
2019/02/23,04:30,0.792,1.140,0.794,1.478,1.064,0.442,0.791,0.749,�k��,6.9,��
2019/02/23,04:40,0.789,1.143,0.791,1.476,1.062,0.444,0.790,0.747,�k��,6.1,��
2019/02/23,04:50,0.790,1.141,0.794,1.476,1.063,0.444,0.791,0.748,�k�k��,5.9,��
2019/02/23,05:00,0.790,1.141,0.794,1.477,1.061,0.444,0.791,0.748,�k�k��,5.1,��
2019/02/23,05:10,0.790,1.140,0.793,1.480,1.064,0.445,0.792,0.747,�k�k��,5.4,��
2019/02/23,05:20,0.791,1.143,0.793,1.474,1.061,0.443,0.790,0.748,�k�k��,5.8,��
2019/02/23,05:30,0.790,1.141,0.794,1.478,1.063,0.444,0.790,0.748,�k�k��,6.2,��
2019/02/23,05:40,0.789,1.140,0.793,1.477,1.063,0.444,0.789,0.747,�k�k��,6.4,��
2019/02/23,05:50,0.791,1.143,0.795,1.478,1.065,0.443,0.791,0.748,�k�k��,6.4,��
2019/02/23,06:00,0.791,1.143,0.792,1.477,1.062,0.444,0.790,0.748,�k�k��,6.3,��
2019/02/23,06:10,0.791,1.142,0.792,1.475,1.063,0.443,0.791,0.747,�k�k��,6.8,��
2019/02/23,06:20,0.790,1.140,0.795,1.475,1.062,0.444,0.792,0.748,�k�k��,7.0,��
2019/02/23,06:30,0.792,1.142,0.794,1.477,1.063,0.444,0.790,0.748,�k�k��,7.8,��
2019/02/23,06:40,0.789,1.141,0.793,1.477,1.063,0.443,0.792,0.747,�k�k��,7.4,��
2019/02/23,06:50,0.790,1.139,0.793,1.475,1.063,0.443,0.790,0.749,�k�k��,6.4,��
2019/02/23,07:00,0.790,1.143,0.791,1.478,1.064,0.443,0.790,0.747,�k�k��,6.0,��
2019/02/23,07:10,0.791,1.139,0.793,1.478,1.062,0.443,0.790,0.746,�k�k��,5.2,��
2019/02/23,07:20,0.790,1.142,0.794,1.476,1.063,0.443,0.790,0.747,�k�k��,4.8,��
2019/02/23,07:30,0.791,1.141,0.794,1.479,1.062,0.442,0.791,0.748,�k�k��,5.6,��
2019/02/23,07:40,0.790,1.142,0.793,1.478,1.063,0.444,0.791,0.747,�k�k��,5.9,��
2019/02/23,07:50,0.789,1.141,0.794,1.477,1.062,0.443,0.790,0.750,�k,7.3,��
2019/02/23,08:00,0.793,1.141,0.794,1.477,1.064,0.445,0.791,0.748,�k�k��,6.9,��
2019/02/23,08:10,0.792,1.142,0.794,1.477,1.061,0.443,0.791,0.749,�k�k��,9.2,��
2019/02/23,08:20,0.792,1.141,0.794,1.476,1.064,0.445,0.795,0.748,�k�k��,9.3,��
2019/02/23,08:30,0.791,1.141,0.794,1.476,1.062,0.444,0.791,0.748,�k,7.9,��
2019/02/23,08:40,0.791,1.142,0.796,1.477,1.063,0.443,0.790,0.748,�k,8.9,��
2019/02/23,08:50,0.793,1.140,0.795,1.476,1.064,0.446,0.792,0.749,�k,7.0,��
2019/02/23,09:00,0.793,1.144,0.795,1.474,1.065,0.444,0.792,0.748,�k,9.6,��
2019/02/23,09:10,0.791,1.140,0.794,1.476,1.063,0.444,0.791,0.749,�k�k��,8.9,��
2019/02/23,09:20,0.790,1.140,0.795,1.477,1.066,0.443,0.790,0.748,�k,8.7,��
2019/02/23,09:30,0.785,1.141,0.794,1.478,1.063,0.445,0.791,0.749,�k,10.4,��
2019/02/23,09:40,0.787,1.141,0.794,1.476,1.066,0.445,0.791,0.750,�k,7.7,��
2019/02/23,09:50,0.789,1.142,0.796,1.476,1.064,0.444,0.791,0.749,�k�k��,9.2,��
2019/02/23,10:00,0.794,1.134,0.793,1.479,1.066,0.444,0.791,0.749,�k,10.5,��
2019/02/23,10:10,0.793,1.137,0.791,1.477,1.065,0.445,0.790,0.750,�k,10.5,��
2019/02/23,10:20,0.794,1.132,0.791,1.478,1.065,0.445,0.788,0.751,�k�k��,10.0,��
2019/02/23,10:30,0.793,1.140,0.789,1.479,1.065,0.445,0.791,0.748,�k�k��,9.3,��
2019/02/23,10:40,0.793,1.141,0.790,1.479,1.064,0.446,0.789,0.750,�k�k��,9.8,��
2019/02/23,10:50,0.794,1.144,0.790,1.480,1.067,0.445,0.791,0.749,�k,9.3,��
2019/02/23,11:00,0.794,1.142,0.791,1.480,1.066,0.446,0.790,0.750,�k,9.4,��
2019/02/23,11:10,0.795,1.143,0.795,1.480,1.067,0.445,0.790,0.750,�k,10.6,��
2019/02/23,11:20,0.796,1.142,0.796,1.479,1.065,0.446,0.790,0.749,�k,13.6,��
2019/02/23,11:30,0.797,1.145,0.796,1.482,1.065,0.445,0.791,0.752,�k�k��,13.1,��
2019/02/23,11:40,0.797,1.147,0.795,1.480,1.066,0.444,0.789,0.750,�k�k��,11.6,��
2019/02/23,11:50,0.795,1.145,0.795,1.478,1.066,0.444,0.788,0.751,�k�k��,11.3,��
2019/02/23,12:00,0.795,1.146,0.797,1.482,1.068,0.445,0.790,0.750,�k,11.3,��
2019/02/23,12:10,0.796,1.143,0.798,1.480,1.064,0.443,0.791,0.749,�k,10.2,��
2019/02/23,12:20,0.795,1.139,0.797,1.479,1.066,0.444,0.791,0.750,�k�k��,10.5,��
2019/02/23,12:30,0.799,1.144,0.795,1.481,1.068,0.446,0.791,0.751,�k,12.4,��
2019/02/23,12:40,0.797,1.135,0.793,1.484,1.068,0.446,0.789,0.752,�k�k��,10.0,��
2019/02/23,12:50,0.798,1.145,0.795,1.479,1.070,0.446,0.791,0.750,�k�k��,10.3,��
2019/02/23,13:00,0.794,1.145,0.798,1.479,1.068,0.445,0.792,0.752,�k�k��,10.8,��
2019/02/23,13:10,0.794,1.139,0.793,1.481,1.067,0.444,0.789,0.751,�k�k��,9.7,��
2019/02/23,13:20,0.797,1.145,0.795,1.484,1.068,0.446,0.790,0.750,�k,11.0,��
2019/02/23,13:30,0.797,1.143,0.797,1.483,1.065,0.445,0.791,0.750,�k,9.1,��
2019/02/23,13:40,0.797,1.144,0.796,1.482,1.070,0.446,0.791,0.751,�k,8.6,��
2019/02/23,13:50,0.795,1.146,0.796,1.482,1.069,0.446,0.790,0.750,�k�k��,8.2,��
2019/02/23,14:00,0.796,1.143,0.799,1.482,1.067,0.446,0.790,0.751,�k�k��,8.2,��
2019/02/23,14:10,0.797,1.145,0.798,1.483,1.070,0.446,0.790,0.751,�k�k��,8.8,��
2019/02/23,14:20,0.797,1.147,0.797,1.483,1.071,0.445,0.789,0.750,�k�k��,11.6,��
2019/02/23,14:30,0.795,1.148,0.797,1.481,1.071,0.446,0.791,0.749,�k��,8.5,��
2019/02/23,14:40,0.797,1.146,0.798,1.485,1.070,0.446,0.790,0.750,�k�k��,9.6,��
2019/02/23,14:50,0.799,1.147,0.799,1.480,1.072,0.445,0.791,0.751,�k�k��,9.7,��
2019/02/23,15:00,0.797,1.150,0.798,1.482,1.069,0.445,0.792,0.750,�k�k��,9.1,��
2019/02/23,15:10,0.800,1.148,0.798,1.481,1.070,0.446,0.791,0.749,�k�k��,8.2,��
2019/02/23,15:20,0.796,1.149,0.798,1.483,1.069,0.445,0.791,0.750,�k��,7.4,��
2019/02/23,15:30,0.797,1.151,0.798,1.482,1.070,0.446,0.791,0.750,���k��,7.3,��
2019/02/23,15:40,0.799,1.150,0.798,1.483,1.067,0.446,0.791,0.750,�k��,7.9,��
2019/02/23,15:50,0.798,1.152,0.797,1.482,1.069,0.446,0.791,0.750,�k�k��,5.7,��
2019/02/23,16:00,0.798,1.148,0.800,1.484,1.070,0.445,0.790,0.750,�k�k��,7.1,��
2019/02/23,16:10,0.796,1.150,0.800,1.486,1.071,0.445,0.791,0.749,�k�k��,7.8,��
2019/02/23,16:20,0.796,1.151,0.798,1.485,1.070,0.447,0.790,0.750,�k�k��,7.9,��
2019/02/23,16:30,0.798,1.150,0.798,1.484,1.069,0.444,0.791,0.751,�k��,10.8,��
2019/02/23,16:40,0.798,1.149,0.796,1.485,1.071,0.445,0.793,0.750,�k��,8.0,��
2019/02/23,16:50,0.798,1.149,0.797,1.482,1.070,0.444,0.791,0.750,�k��,8.9,��
2019/02/23,17:00,0.797,1.149,0.798,1.484,1.069,0.445,0.791,0.749,�k��,8.0,��
2019/02/23,17:10,0.796,1.149,0.795,1.484,1.070,0.447,0.792,0.749,�k�k��,8.4,��
2019/02/23,17:20,0.795,1.149,0.797,1.484,1.069,0.446,0.793,0.748,�k�k��,8.2,��
2019/02/23,17:30,0.796,1.150,0.799,1.485,1.069,0.445,0.792,0.750,�k�k��,8.0,��
2019/02/23,17:40,0.797,1.150,0.798,1.485,1.070,0.444,0.794,0.748,�k�k��,5.9,��
2019/02/23,17:50,0.797,1.148,0.799,1.485,1.067,0.445,0.793,0.749,�k�k��,6.4,��
2019/02/23,18:00,0.797,1.150,0.797,1.484,1.070,0.444,0.793,0.750,�k��,5.0,��
2019/02/23,18:10,0.796,1.150,0.797,1.484,1.070,0.444,0.793,0.750,�k��,6.1,��
2019/02/23,18:20,0.797,1.150,0.796,1.486,1.070,0.444,0.794,0.750,�k��,6.9,��
2019/02/23,18:30,0.795,1.148,0.796,1.483,1.070,0.444,0.793,0.747,�k��,8.8,��
2019/02/23,18:40,0.795,1.150,0.796,1.482,1.069,0.444,0.793,0.748,�k��,6.4,��
2019/02/23,18:50,0.794,1.152,0.798,1.482,1.069,0.443,0.792,0.748,�k��,5.8,��
2019/02/23,19:00,0.796,1.151,0.796,1.483,1.069,0.443,0.793,0.751,�k��,4.9,��
2019/02/23,19:10,0.794,1.149,0.797,1.483,1.070,0.446,0.792,0.748,�k��,5.4,��
2019/02/23,19:20,0.794,1.150,0.797,1.482,1.068,0.444,0.792,0.749,�k��,8.5,��
2019/02/23,19:30,0.794,1.150,0.796,1.483,1.069,0.444,0.792,0.749,�k��,7.2,��
2019/02/23,19:40,0.795,1.148,0.796,1.480,1.070,0.446,0.793,0.749,�k��,4.9,��
2019/02/23,19:50,0.794,1.150,0.798,1.482,1.069,0.444,0.792,0.748,�k��,6.9,��
2019/02/23,20:00,0.795,1.151,0.798,1.484,1.069,0.442,0.793,0.749,�k��,7.6,��
2019/02/23,20:10,0.794,1.150,0.796,1.482,1.068,0.445,0.792,0.749,�k��,7.1,��
2019/02/23,20:20,0.793,1.147,0.797,1.485,1.068,0.443,0.791,0.749,�k��,7.0,��
2019/02/23,20:30,0.796,1.148,0.797,1.483,1.069,0.443,0.791,0.748,�k��,5.9,��
2019/02/23,20:40,0.794,1.150,0.797,1.484,1.068,0.443,0.792,0.748,�k��,5.9,��
2019/02/23,20:50,0.795,1.150,0.796,1.485,1.065,0.443,0.793,0.747,�k��,6.0,��
2019/02/23,21:00,0.794,1.150,0.796,1.484,1.068,0.444,0.791,0.748,�k��,5.4,��
2019/02/23,21:10,0.794,1.150,0.796,1.482,1.069,0.442,0.792,0.749,�k��,5.3,��
2019/02/23,21:20,0.794,1.150,0.796,1.482,1.070,0.443,0.791,0.750,�k��,5.4,��
2019/02/23,21:30,0.793,1.152,0.795,1.481,1.066,0.444,0.790,0.747,�k��,6.1,��
2019/02/23,21:40,0.795,1.149,0.796,1.482,1.068,0.443,0.790,0.749,�k��,6.4,��
2019/02/23,21:50,0.794,1.147,0.795,1.484,1.068,0.443,0.791,0.748,�k��,5.7,��
2019/02/23,22:00,0.796,1.151,0.794,1.483,1.069,0.446,0.789,0.747,�k��,5.1,��
2019/02/23,22:10,0.793,1.148,0.795,1.482,1.067,0.446,0.791,0.747,�k��,5.6,��
2019/02/23,22:20,0.791,1.149,0.795,1.483,1.067,0.443,0.792,0.748,�k��,4.8,��
2019/02/23,22:30,0.794,1.147,0.795,1.483,1.069,0.442,0.790,0.746,�k��,5.3,��
2019/02/23,22:40,0.793,1.151,0.795,1.481,1.067,0.443,0.791,0.747,�k��,5.2,��
2019/02/23,22:50,0.794,1.149,0.795,1.483,1.068,0.443,0.789,0.748,�k�k��,4.2,��
2019/02/23,23:00,0.795,1.148,0.797,1.482,1.065,0.444,0.788,0.748,�k�k��,4.4,��
2019/02/23,23:10,0.794,1.149,0.795,1.483,1.067,0.444,0.789,0.748,�k�k��,4.3,��
2019/02/23,23:20,0.793,1.146,0.794,1.484,1.068,0.443,0.790,0.748,�k��,2.0,��
2019/02/23,23:30,0.794,1.149,0.795,1.481,1.069,0.442,0.790,0.748,�k��,3.8,��
2019/02/23,23:40,0.794,1.145,0.796,1.483,1.066,0.444,0.789,0.749,�k��,2.9,��
2019/02/23,23:50,0.795,1.146,0.797,1.483,1.068,0.443,0.791,0.749,���k��,2.6,��
